Washington State Current Weather Observations

 
 ASUS46 KSEW 231220
 RWRWA 
 
 WASHINGTON REGIONAL WEATHER ROUNDUP
 NATIONAL WEATHER SERVICE SEATTLE WA
 500 AM PDT WED SEP 23 2020
 
 NOTE:"FAIR" INDICATES FEW OR NO CLOUDS BELOW 12,000 FEET WITH NO 
 SIGNIFICANT WEATHER AND/OR OBSTRUCTIONS TO VISIBILITY.
 
 WAZ507-509-555>559-231300-
 SEATTLE, TACOMA, EVERETT, AND VICINITY
   
 CITY           SKY/WX    TMP DP  RH WIND       PRES   REMARKS
 EVERETT        CLOUDY    59  55  87 S13       29.87F                  
 6HR MIN TEMP:  59; 6HR MAX TEMP:  64; 6HR PCP:  0.02;                
 
 BOEING FIELD   LGT RAIN  60  57  89 SE10      29.87F                  
 6HR MIN TEMP:  60; 6HR MAX TEMP:  65; 6HR PCP:  0.06;                
 
 RENTON         LGT RAIN  59  56  89 SE5       29.88S FOG              
 6HR MIN TEMP:  59; 6HR MAX TEMP:  62; 6HR PCP:  0.06;                
 
 SEATAC AIRPORT LGT RAIN  58  56  93 S7        29.87F                  
 6HR MIN TEMP:  58; 6HR MAX TEMP:  64; 6HR PCP:  0.12;                
 
 JBLM-MCCHORD   LGT RAIN  58  55  91 S7        29.88F                  
 6HR MIN TEMP:  56; 6HR MAX TEMP:  60; 6HR PCP: TRACE;                
 
 PUYALLUP       RAIN      57  57 100 CALM      29.89S                  
 BREMERTON      LGT RAIN  57  55  93 S12       29.86F                  
 6HR MIN TEMP:  52; 6HR MAX TEMP:  58;                                
 
 JBLM-FT LEWIS  LGT RAIN  58  58 100 SE10      29.87F                  
 6HR MIN TEMP:  57; 6HR MAX TEMP:  61; 6HR PCP:  0.11;                
 
 TACOMA NARROWS LGT RAIN  56  53  90 S8        29.88F                  
 6HR MIN TEMP:  56; 6HR MAX TEMP:  60; 6HR PCP:  0.19;                
 
 
WAZ001-503-506-510-514-515-231300- NORTH INTERIOR CITY SKY/WX TMP DP RH WIND PRES REMARKS BELLINGHAM LGT RAIN 64 53 67 S14G30 29.77F 6HR MIN TEMP: 57; 6HR MAX TEMP: 68; 6HR PCP: 0.01; FRIDAY HARBOR PTCLDY 59 52 77 SE20G32 29.75F 6HR MIN TEMP: 56; 6HR MAX TEMP: 63; 6HR PCP: TRACE; PORT ANGELES LGT RAIN 54 53 97 W6 29.74F 6HR MIN TEMP: 53; 6HR MAX TEMP: 56; 6HR PCP: 0.03; EDIZ HOOK CLOUDY 54 53 95 W7 29.72S 6HR MIN TEMP: 51; 6HR MAX TEMP: 54; PORT TOWNSEND FAIR 61 55 82 SE21G38 29.76F NAS WHIDBEY LGT RAIN 62 53 72 SE30G43 29.82F 6HR MIN TEMP: 62; 6HR MAX TEMP: 67; 6HR PCP: TRACE; ARLINGTON CLOUDY 65 52 62 S14G21 29.86S 6HR MIN TEMP: 59; 6HR MAX TEMP: 66; 6HR PCP: TRACE; BURLINGTON CLOUDY 61 55 82 S12G17 29.81S
WAZ020-022-039-040-504-511-512-231300- SOUTHWEST INTERIOR CITY SKY/WX TMP DP RH WIND PRES REMARKS SHELTON LGT RAIN 57 57 100 CALM 29.83F FOG 6HR MIN TEMP: 54; 6HR MAX TEMP: 58; 6HR PCP: 0.28; OLYMPIA LGT RAIN 58 54 86 S12 29.87F FOG 6HR MIN TEMP: 56; 6HR MAX TEMP: 59; 6HR PCP: 0.21; CHEHALIS LGT RAIN 59 57 94 S15G23 29.88F KELSO LGT RAIN 62 54 74 SE9 29.93R 6HR MIN TEMP: 60; 6HR MAX TEMP: 66; 6HR PCP: TRACE; VANCOUVER CLOUDY 66 51 58 S6 29.94R 6HR MIN TEMP: 65; 6HR MAX TEMP: 67; SCAPPOOSE, OR LGT RAIN 61 53 75 E3 29.93R 6HR MIN TEMP: 56; 6HR MAX TEMP: 64; 6HR PCP: TRACE; PORTLAND, OR LGT RAIN 64 55 72 S7 29.95R 6HR MIN TEMP: 64; 6HR MAX TEMP: 67; 6HR PCP: TRACE;
WAZ021-516-517-231300- WASHINGTON COAST CITY SKY/WX TMP DP RH WIND PRES REMARKS FORKS LGT RAIN 57 55 93 S17G30 29.72S FOG 6HR MIN TEMP: 56; 6HR MAX TEMP: 60; 6HR PCP: 0.64; HOQUIAM CLOUDY 59 55 87 S14G20 29.83S 6HR MIN TEMP: 57; 6HR MAX TEMP: 59; 6HR PCP: 0.50; ASTORIA, OR LGT RAIN 62 58 86 S15G23 29.84F 6HR MIN TEMP: 56; 6HR MAX TEMP: 62; 6HR PCP: 0.07;
WAZ019-023-024-040-567>569-231300- CASCADE MOUNTAINS AND COLUMBIA GORGE CITY SKY/WX TMP DP RH WIND PRES REMARKS STAMPEDE PASS LGT RAIN 50 45 83 CALM 29.97F 6HR MIN TEMP: 50; 6HR MAX TEMP: 54; 6HR PCP: 0.01; TROUTDALE, OR CLOUDY 62 55 77 CALM 29.95S 6HR MIN TEMP: 61; 6HR MAX TEMP: 64; HOOD RIVER, OR PTSUNNY 55 52 88 CALM 29.96S THE DALLES, OR MOCLDY 60 50 69 E3 29.94S 6HR MIN TEMP: 60; 6HR MAX TEMP: 66;
WAZ026-027-041>044-520-521-231300- EAST SLOPES CITY SKY/WX TMP DP RH WIND PRES REMARKS OMAK PTCLDY 68 45 43 S12 29.90R 6HR MIN TEMP: 65; 6HR MAX TEMP: 72; WENATCHEE PTCLDY 60 49 66 N5 29.90S 6HR MIN TEMP: 59; 6HR MAX TEMP: 66; ELLENSBURG PTCLDY 56 50 80 N6 29.93S 6HR MIN TEMP: 56; 6HR MAX TEMP: 64; YAKIMA MOCLDY 60 46 59 W6 29.93R 6HR MIN TEMP: 58; 6HR MAX TEMP: 67; SUNNYSIDE ARPT CLOUDY 56 49 77 N5 29.93S 6HR MIN TEMP: 53; 6HR MAX TEMP: 58; YAKIMA TC PTSUNNY 62 41 46 NW3 29.91R 6HR MIN TEMP: 60; 6HR MAX TEMP: 65;
WAZ028-034-035-231300- COLUMBIA BASIN CITY SKY/WX TMP DP RH WIND PRES REMARKS EPHRATA MOCLDY 58 48 69 CALM 29.91R 6HR MIN TEMP: 54; 6HR MAX TEMP: 64; MOSES LAKE MOCLDY 60 44 55 SE7 29.92S 6HR MIN TEMP: 60; 6HR MAX TEMP: 67; PASCO CLOUDY 67 49 52 SE6 29.94S 6HR MIN TEMP: 67; 6HR MAX TEMP: 73; RICHLAND ARPT CLOUDY 66 50 55 SW3 29.93S 6HR MIN TEMP: 64; 6HR MAX TEMP: 72; HERMISTON, OR CLOUDY 62 46 55 S6 29.95S 6HR MIN TEMP: 61; 6HR MAX TEMP: 67;
WAZ036>038-231300- NORTHEAST WASHINGTON CITY SKY/WX TMP DP RH WIND PRES REMARKS SPOKANE GEIGER CLOUDY 57 44 62 S10 29.98F 6HR MIN TEMP: 56; 6HR MAX TEMP: 60; SPOKANE FELTS MOCLDY 57 46 66 NE5 29.99S 6HR MIN TEMP: 57; 6HR MAX TEMP: 62; FAIRCHILD AFB CLOUDY 55 45 69 SE9 29.98F 6HR MIN TEMP: 55; 6HR MAX TEMP: 57; COEURDALENE,ID MOCLDY 55 48 77 CALM 30.02R 6HR MIN TEMP: 51; 6HR MAX TEMP: 58; DEER PARK MOCLDY 49 40 71 CALM 29.99S 6HR MIN TEMP: 46; 6HR MAX TEMP: 53;
WAZ029>033-231300- SOUTHEAST WASHINGTON CITY SKY/WX TMP DP RH WIND PRES REMARKS PULLMAN MOCLDY 54 46 74 NE5 30.03S 6HR MIN TEMP: 52; 6HR MAX TEMP: 59; LEWISTON, ID MOCLDY 58 45 62 S3 29.99R 6HR MIN TEMP: 58; 6HR MAX TEMP: 65; WALLA WALLA MOCLDY 62 46 55 SE6 29.97S 6HR MIN TEMP: 58; 6HR MAX TEMP: 65; PENDLETON, OR MOCLDY 58 47 66 SE5 29.98S 6HR MIN TEMP: 57; 6HR MAX TEMP: 67;

Data from: http://www.wrh.noaa.gov/sew/get.php?pil=RWR&sid=WA&version=0&format=printer

Current Observations

Current Weather Conditions by Major Highway
Washington State Current Weather Observations   …  Oregon State Current Weather Observation



48 Hour Forecast


Seattle  …  Vancouver  …  Portland
————————————————————————————————————————
Bend  …  Spokane  …  Richland  …  Pendleton  …  Blue Mountains I-84  …  Yakima
————————————————————————————————————————
Goldendale, Washington Higher Elevations  …  Dallesport Airport - Goldendale  …  Bingen - White Salmon - Hood River  …  Index





Top of Page